Temperature
18 17 17 17 17 17 16 16 16 16 16 15 15 15 15 14 14 14 14 14 14 14 14 14 13 13 13 13 13 13 13 13 13 13 13 13 13 13 13 13 13 13 13
18 17 17 17 17 17 16 16 16 16 15 15 15 15 15 14 14 14 14 14 14 14 14 14 13 13 13 13 13 13 13 13 13 13 14 14 13 13 13 12 12 12 12
18 18 17 17 17 16 16 16 16 16 16 15 15 15 14 14 14 14 14 14 14 14 14 14 13 13 13 13 13 13 13 13 13 13 13 14 14 13 13 12 12 12 12
18 17 17 17 16 16 16 16 16 16 15 15 15 14 14 14 14 14 14 14 14 14 14 13 13 13 13 13 13 13 12 13 13 13 13 13 13 13 13 12 12 12 12
17 17 17 17 16 16 16 16 16 16 15 15 15 14 14 14 14 14 14 13 13 13 13 13 13 13 13 13 13 12 12 12 12 12 12 12 12 13 13 13 12 12 12
17 17 17 16 16 16 16 15 15 15 15 15 15 14 14 14 14 14 13 13 13 13 13 13 13 13 13 13 13 12 12 12 12 12 12 12 12 13 13 13 12 12 12
17 17 16 16 16 16 15 15 15 15 15 15 14 14 14 14 13 13 13 13 13 13 13 13 13 13 13 13 13 12 12 12 12 12 12 12 12 12 12 12 12 12 12
17 17 16 16 16 15 15 15 15 15 15 14 14 14 14 14 13 13 13 13 13 13 13 13 13 13 13 12 12 12 12 12 12 12 12 12 12 12 12 12 12 12 12
17 16 16 16 16 15 15 15 15 14 14 14 14 14 14 14 14 13 13 13 13 13 13 13 13 12 12 12 12 12 12 12 12 12 12 12 12 12 12 12 11 12 12
17 16 16 16 15 15 15 15 14 14 14 14 14 14 14 13 13 13 13 13 13 13 13 12 12 12 12 12 12 12 12 12 12 12 12 12 12 11 11 11 11 11 12
16 16 15 15 15 15 14 14 14 14 14 14 14 13 13 13 13 13 13 13 13 13 12 12 12 12 12 12 12 11 11 11 11 11 11 11 11 11 11 11 11 11 11
16 15 15 15 15 15 14 14 14 14 14 13 13 13 13 13 13 13 13 12 12 12 12 12 12 12 12 11 11 11 11 11 11 11 11 11 11 11 11 11 11 11 11
15 15 15 15 14 14 14 14 13 13 13 13 13 13 13 13 12 12 12 12 12 12 12 12 12 11 11 11 11 11 11 11 11 11 11 11 11 11 11 11 11 10 10
15 15 14 14 14 14 14 13 13 13 13 13 13 13 12 12 12 12 12 12 12 12 12 11 11 11 11 11 11 11 11 11 11 10 10 10 10 10 10 10 10 10 10
14 14 14 14 14 14 13 13 13 13 12 12 12 12 12 12 12 12 12 12 12 12 11 11 11 11 11 11 11 11 10 10 10 10 10 10 10 10 10 10 10 9 9
14 14 14 14 14 13 13 13 13 12 12 12 12 12 12 12 12 12 12 11 11 11 11 11 11 11 11 11 11 10 10 10 10 10 10 10 10 10 10 10 9 9 9
14 14 14 13 13 13 13 13 12 12 12 12 12 12 12 12 11 11 11 11 11 11 11 11 10 10 10 10 10 10 10 10 9 9 9 9 9 9 9 9 9 9 9
13 13 13 13 13 13 13 12 12 12 12 11 11 11 11 11 11 11 11 11 11 10 10 10 10 10 10 10 10 10 9 9 9 9 9 9 9 8 9 9 8 9 8
13 13 13 13 13 13 12 12 12 12 11 11 11 11 11 11 11 11 11 10 10 10 10 10 10 10 10 10 10 9 9 9 8 8 8 8 8 8 8 8 8 8 8
13 13 13 12 12 12 12 12 12 11 11 11 11 11 10 10 10 10 10 10 10 10 10 9 9 9 9 9 9 9 9 8 8 8 8 8 8 8 8 7 7 8 8
13 13 13 12 12 12 12 11 11 11 11 11 10 10 10 10 10 10 10 10 10 9 9 9 9 9 9 9 9 9 8 8 8 7 8 8 8 8 7 7 7 7 7
12 12 12 12 12 12 11 11 11 11 10 10 10 10 10 10 9 9 9 9 9 9 9 8 8 8 8 8 8 8 8 8 7 7 7 7 7 7 7 7 7 7 7
12 12 12 12 11 11 11 11 11 10 10 10 9 9 9 9 9 9 9 9 8 8 8 8 8 8 8 8 8 8 8 7 7 7 7 7 7 7 6 6 6 6 6
11 11 11 11 11 11 11 10 10 10 9 9 9 9 9 9 8 9 9 8 8 8 8 7 7 7 7 7 7 7 7 7 7 7 7 6 6 6 6 6 6 6 6
11 11 11 10 10 10 10 10 10 9 9 9 8 8 8 8 8 8 8 8 8 8 8 7 7 7 7 7 7 7 7 6 6 6 6 6 6 5 5 5 5 5 5
10 10 10 10 10 10 9 9 9 9 9 8 8 8 8 8 8 8 8 8 8 8 7 7 7 7 7 7 7 7 6 6 6 6 5 5 5 5 5 5 5 5 5
Wind_Speed
5 4 4 4 4 4 4 4 4 3 3 3 3 3 3 3 2 2 2 2 2 2 3 2 3 3 3 3 4 4 4 3 3 3 3 4 4 4 4 3 3 5 6
6 5 5 5 5 5 4 4 4 4 4 3 3 3 3 2 2 2 2 1 2 2 2 2 2 3 3 3 3 3 2 2 1 1 1 2 2 2 2 3 3 3 4
7 6 6 6 6 5 5 5 5 5 4 4 3 3 3 3 2 2 2 1 1 2 2 2 2 2 2 2 2 2 1 1 1 1 1 0 1 1 1 2 2 3 3
6 6 6 6 6 6 5 5 5 5 5 5 4 4 3 3 2 2 2 2 2 1 1 2 2 2 1 1 1 1 1 1 1 1 1 1 1 1 1 1 2 2 2
7 6 6 6 6 6 5 5 5 5 5 5 5 4 3 2 2 2 2 2 2 1 1 1 2 2 1 1 1 1 1 1 1 0 0 0 0 2 1 1 0 1 1
6 5 6 6 6 5 5 5 5 5 5 5 5 5 4 3 3 3 2 2 2 2 2 1 1 2 1 1 1 1 2 2 2 1 1 1 1 1 1 2 1 1 1
5 6 6 7 6 6 6 6 6 6 6 6 6 5 4 4 4 3 3 3 2 2 2 2 2 2 2 2 2 2 2 2 2 2 2 2 2 1 2 2 2 1 1
5 5 6 6 6 6 6 6 6 6 6 6 6 5 5 4 3 3 3 3 2 2 2 3 2 2 3 3 3 2 3 3 3 3 2 2 2 2 2 2 2 2 1
5 5 5 6 7 7 7 7 7 6 6 6 6 5 5 5 4 3 2 2 2 2 2 2 2 2 3 3 3 3 3 3 3 3 3 2 2 2 2 3 3 3 3
4 4 5 5 6 6 6 6 7 6 6 6 5 4 5 4 3 3 3 2 2 2 3 3 3 2 2 2 2 2 3 3 3 2 3 2 2 2 2 3 3 4 4
4 4 4 4 5 5 5 6 6 6 5 5 5 5 4 4 3 3 2 3 2 3 3 3 3 3 3 3 2 3 3 3 3 4 4 4 3 3 3 3 3 3 3
3 4 4 4 4 5 5 5 5 5 5 4 5 5 4 4 3 3 3 3 3 3 3 3 3 3 3 3 3 3 3 4 4 4 4 4 3 3 3 3 3 3 4
3 3 4 4 4 4 4 4 4 5 4 4 4 5 4 4 4 3 3 3 2 3 3 3 3 4 4 4 4 4 4 4 4 4 4 4 4 4 3 3 3 3 3
4 4 3 3 4 4 4 4 4 4 4 4 4 4 5 4 4 4 3 3 3 3 4 4 4 4 4 4 4 4 4 4 4 4 4 5 4 4 4 3 4 3 3
4 4 3 3 4 4 4 4 4 4 4 4 4 4 4 4 4 3 4 3 3 4 4 4 4 4 3 3 3 3 4 4 4 4 4 4 3 2 3 3 3 3 3
4 3 3 4 4 4 4 4 4 5 5 5 5 4 4 4 4 4 4 3 3 4 4 4 4 3 3 1 2 4 4 4 4 4 4 3 3 3 3 3 3 4 5
4 4 4 4 4 4 4 4 4 4 5 5 5 5 4 5 4 4 4 4 4 3 4 4 4 4 3 3 3 4 5 5 5 5 4 3 3 4 5 5 6 6 6
4 4 4 4 4 4 4 4 4 5 5 5 5 4 4 4 4 4 4 4 4 3 4 4 4 4 3 3 4 5 6 5 5 5 5 5 5 4 4 5 5 6 6
3 3 4 4 4 4 4 4 4 4 4 4 5 4 4 4 4 5 5 4 4 4 4 4 4 4 3 4 4 5 4 4 5 5 5 5 6 3 4 6 6 6 6
3 2 2 3 4 4 4 4 4 4 4 4 4 4 4 5 5 5 4 4 4 4 4 4 4 5 4 4 4 5 4 4 4 5 5 5 5 4 4 6 7 7 6
2 3 3 3 4 4 5 5 4 4 3 3 3 4 4 5 5 5 4 4 4 4 4 4 4 5 5 5 6 6 4 4 4 4 5 4 5 5 6 7 7 6 6
2 3 3 3 4 4 5 5 4 3 3 3 3 4 4 4 4 4 5 5 5 5 5 5 4 4 4 4 5 6 6 6 5 5 4 3 4 5 6 6 4 4 6
3 3 3 3 3 4 5 5 4 3 3 3 3 3 3 3 4 4 5 5 5 4 4 4 4 3 3 4 5 7 7 7 6 5 3 4 4 5 5 5 6 6 5
3 3 3 4 4 4 4 4 3 3 4 4 4 3 3 3 4 3 4 4 5 5 5 5 4 4 4 4 4 4 4 5 5 4 3 5 6 6 5 5 6 6 5
3 3 3 3 4 4 3 3 3 4 4 4 4 4 3 3 3 3 3 4 4 4 5 5 5 5 5 4 4 4 4 4 4 4 4 4 4 5 5 4 4 4 4
4 4 3 3 3 3 3 3 3 4 4 4 4 3 3 3 3 3 3 2 4 3 4 5 5 4 4 4 5 5 4 4 4 5 5 5 5 5 5 5 5 4 4
Wind_Direction
213 203 201 192 189 190 189 178 176 168 162 160 165 158 150 137 130 116 108 106 97 93 94 100 105 106 104 103 102 103 98 88 91 105 102 94 77 63 61 52 51 59 55
210 200 202 196 196 191 196 188 182 176 171 169 166 157 148 142 131 128 117 109 117 110 117 124 121 125 120 118 108 108 108 90 84 100 138 127 122 70 64 57 44 46 55
218 208 204 199 194 194 193 191 185 179 176 170 160 152 144 148 150 150 150 144 137 133 127 128 134 132 134 133 135 139 130 116 96 42 357 250 124 97 108 66 55 44 42
222 215 205 199 192 191 190 191 187 183 178 172 172 169 169 167 171 167 160 165 155 151 148 148 160 156 140 132 157 168 195 217 165 83 2 355 66 222 153 129 59 46 37
217 213 205 197 189 182 184 190 187 186 183 179 176 188 189 182 176 171 166 174 158 161 168 175 186 179 169 159 165 207 236 240 252 233 141 111 213 256 243 221 137 45 27
210 207 197 189 180 174 178 184 188 188 187 185 187 195 194 193 187 190 190 193 182 183 187 195 201 198 193 184 203 218 230 250 250 244 235 241 239 241 241 246 241 282 353
205 196 189 187 181 178 178 183 187 189 189 191 192 197 203 204 205 207 209 214 204 198 199 203 209 206 208 204 209 219 229 229 232 241 252 251 262 260 252 248 266 284 281
199 194 193 190 183 185 184 185 188 189 188 192 194 196 200 206 210 220 228 228 228 219 207 206 207 205 203 208 203 222 230 234 226 230 239 243 250 248 240 246 253 262 257
198 195 194 194 188 189 192 189 189 190 190 194 196 194 197 202 204 209 220 229 230 223 210 206 205 203 203 210 205 217 225 232 231 225 223 234 242 243 242 241 246 255 260
198 196 197 198 192 191 194 192 191 193 193 195 197 196 199 200 202 198 203 211 211 204 201 207 208 205 207 210 211 218 226 226 229 229 230 234 238 242 238 245 248 253 257
199 189 190 193 191 186 190 194 193 193 190 195 195 194 194 195 193 196 207 204 197 200 206 206 213 214 214 211 209 221 220 225 226 225 229 235 239 239 234 236 243 248 247
195 184 178 181 182 183 192 200 197 195 193 194 194 194 189 189 193 199 205 203 201 207 213 212 217 221 220 216 217 226 231 234 233 231 231 235 231 238 241 232 236 240 240
189 179 168 173 174 177 189 198 200 196 191 191 195 192 190 193 201 206 205 205 205 211 214 216 220 224 224 221 225 230 235 239 242 240 238 237 233 233 229 228 232 237 236
189 184 174 175 172 173 182 193 196 195 187 187 195 200 199 201 208 210 208 210 211 216 220 220 223 226 227 226 228 230 234 238 242 242 241 240 235 234 229 228 228 230 234
191 188 190 185 175 174 177 190 193 193 191 193 199 205 206 205 208 209 214 217 221 223 223 222 221 224 226 224 229 233 238 243 243 245 246 245 238 261 251 241 232 230 236
207 201 196 192 190 185 184 189 195 196 197 201 208 209 208 204 209 213 212 215 224 232 227 224 219 218 225 195 246 253 241 244 244 246 245 235 217 216 228 244 251 247 241
216 211 207 198 196 194 190 194 194 194 202 206 209 208 209 209 209 211 210 214 220 226 225 225 222 220 209 182 221 248 248 246 248 247 247 249 236 224 233 224 223 232 239
223 214 212 202 197 193 188 187 189 196 204 208 209 208 211 214 214 212 214 219 222 221 223 224 221 223 212 196 221 241 243 245 246 245 246 245 244 235 245 246 245 248 244
232 226 214 208 195 188 189 186 187 194 205 211 213 213 215 216 217 217 216 220 221 222 222 222 222 224 215 193 213 242 242 247 248 244 243 242 243 227 238 244 248 252 251
222 217 212 198 192 188 189 193 194 198 209 217 222 222 220 220 223 225 223 220 217 220 222 222 227 228 228 195 210 241 239 246 249 248 242 226 233 230 235 245 249 252 254
216 198 194 194 193 193 195 203 205 211 216 218 223 226 224 225 228 227 222 216 214 216 220 223 227 232 232 201 204 231 239 243 249 250 248 238 204 223 241 256 254 260 266
204 198 196 197 192 192 199 211 218 220 214 210 216 224 227 227 225 222 221 217 214 219 222 225 228 237 230 218 211 223 245 259 250 251 252 244 203 225 243 253 261 268 265
204 204 204 195 195 197 202 216 222 216 212 210 216 226 233 231 227 221 220 221 220 222 224 226 231 236 235 219 211 223 236 251 253 252 254 251 234 236 238 234 240 243 245
205 204 202 200 204 208 209 220 221 217 215 218 224 229 235 237 234 231 230 228 222 221 224 226 231 237 235 229 222 227 233 235 247 250 231 227 230 234 238 239 237 241 241
207 203 204 209 213 213 218 221 217 216 218 225 231 233 236 244 245 240 246 245 242 239 233 229 229 230 236 234 233 237 237 236 240 246 241 238 237 242 243 243 243 241 240
210 208 207 214 225 219 222 229 222 218 221 227 231 234 234 237 241 244 249 274 264 248 249 256 252 245 249 227 231 241 241 234 225 232 234 238 238 239 239 239 241 240 241
Height
1529 1530 1531 1531 1532 1533 1533 1534 1534 1534 1534 1534 1535 1535 1536 1537 1538 1539 1539 1539 1540 1540 1540 1541 1541 1540 1541 1541 1541 1541 1542 1542 1542 1543 1543 1543 1543 1543 1542 1542 1542 1542 1542
1527 1528 1529 1529 1530 1531 1532 1532 1533 1533 1533 1534 1535 1535 1536 1537 1538 1538 1539 1539 1540 1540 1540 1541 1541 1541 1541 1542 1542 1542 1543 1543 1543 1544 1544 1545 1546 1544 1544 1543 1543 1543 1542
1524 1525 1526 1527 1528 1529 1530 1531 1532 1532 1533 1533 1534 1535 1536 1537 1537 1538 1538 1539 1539 1539 1540 1540 1541 1541 1541 1541 1542 1542 1543 1543 1543 1544 1545 1545 1545 1545 1545 1544 1543 1543 1542
1521 1523 1524 1525 1526 1527 1528 1530 1530 1531 1532 1532 1533 1535 1535 1536 1537 1537 1538 1538 1538 1539 1539 1539 1540 1541 1541 1541 1541 1542 1543 1543 1544 1543 1543 1545 1544 1545 1545 1545 1544 1543 1542
1519 1520 1521 1522 1524 1525 1526 1528 1529 1530 1531 1531 1532 1533 1535 1536 1536 1537 1537 1537 1538 1538 1538 1539 1539 1540 1540 1540 1541 1541 1542 1542 1543 1543 1543 1543 1543 1544 1544 1544 1544 1543 1542
1516 1518 1519 1520 1522 1523 1524 1526 1527 1528 1529 1530 1531 1532 1533 1534 1535 1535 1536 1536 1537 1537 1537 1538 1538 1538 1539 1540 1540 1540 1541 1541 1542 1542 1542 1543 1543 1543 1543 1543 1543 1542 1542
1514 1515 1516 1518 1519 1520 1522 1523 1525 1526 1527 1528 1529 1530 1531 1532 1533 1534 1535 1535 1535 1536 1536 1536 1537 1537 1537 1538 1538 1539 1539 1540 1540 1541 1541 1541 1542 1542 1542 1542 1542 1541 1541
1512 1513 1514 1516 1517 1518 1519 1521 1522 1524 1525 1526 1527 1528 1529 1530 1531 1532 1533 1533 1534 1534 1534 1535 1535 1535 1536 1536 1537 1537 1538 1538 1539 1539 1539 1540 1540 1540 1540 1540 1540 1540 1540
1510 1511 1512 1513 1515 1516 1517 1519 1520 1521 1522 1524 1525 1526 1527 1528 1529 1530 1531 1531 1531 1532 1532 1533 1533 1534 1534 1535 1535 1535 1536 1537 1537 1537 1538 1538 1538 1538 1538 1538 1538 1539 1538
1508 1509 1510 1511 1513 1514 1515 1516 1518 1519 1520 1521 1523 1524 1525 1526 1526 1527 1528 1529 1529 1530 1530 1531 1531 1532 1532 1533 1533 1533 1533 1534 1534 1534 1535 1535 1536 1536 1536 1536 1536 1536 1536
1506 1507 1508 1509 1511 1512 1513 1514 1515 1517 1518 1519 1520 1521 1522 1523 1524 1525 1526 1527 1527 1528 1528 1529 1529 1530 1530 1530 1531 1531 1531 1532 1532 1533 1533 1533 1533 1533 1533 1533 1534 1534 1534
1504 1505 1506 1507 1509 1510 1511 1512 1513 1514 1515 1516 1518 1519 1520 1521 1522 1523 1524 1524 1525 1526 1526 1527 1527 1527 1528 1528 1528 1528 1529 1529 1530 1530 1530 1530 1531 1531 1531 1531 1531 1531 1531
1503 1504 1504 1506 1507 1508 1509 1510 1511 1512 1513 1514 1515 1517 1517 1518 1520 1521 1521 1522 1523 1523 1524 1524 1525 1525 1525 1525 1526 1526 1526 1527 1527 1527 1527 1528 1528 1528 1528 1528 1528 1529 1529
1501 1502 1503 1504 1505 1506 1507 1508 1509 1510 1511 1512 1513 1514 1515 1516 1517 1518 1519 1520 1520 1521 1521 1522 1522 1522 1523 1523 1523 1523 1524 1524 1524 1524 1524 1525 1525 1525 1525 1525 1525 1526 1526
1500 1500 1501 1502 1503 1504 1505 1506 1507 1508 1509 1510 1511 1511 1512 1513 1514 1515 1516 1517 1517 1518 1518 1519 1519 1519 1519 1520 1520 1520 1521 1521 1521 1521 1521 1521 1521 1521 1521 1522 1522 1522 1523
1498 1499 1500 1501 1501 1502 1503 1504 1504 1505 1506 1507 1508 1509 1510 1510 1511 1512 1513 1513 1514 1515 1515 1516 1516 1516 1516 1516 1516 1517 1517 1517 1518 1518 1518 1517 1517 1517 1517 1518 1518 1519 1519
1496 1497 1498 1498 1499 1500 1501 1501 1502 1502 1503 1504 1505 1506 1506 1507 1508 1509 1509 1510 1510 1511 1512 1512 1512 1512 1513 1513 1513 1513 1514 1514 1514 1514 1514 1514 1514 1514 1514 1515 1515 1515 1515
1493 1494 1495 1496 1497 1498 1498 1499 1499 1500 1500 1501 1502 1502 1503 1504 1504 1505 1506 1506 1507 1507 1508 1508 1508 1509 1509 1509 1509 1509 1510 1510 1510 1510 1510 1510 1510 1510 1510 1511 1511 1511 1511
1491 1492 1493 1494 1494 1495 1496 1496 1497 1497 1498 1498 1498 1499 1500 1500 1501 1501 1502 1502 1503 1503 1503 1504 1504 1504 1505 1505 1505 1505 1505 1506 1506 1506 1505 1506 1506 1506 1506 1507 1507 1507 1507
1489 1489 1490 1491 1492 1493 1493 1494 1494 1494 1494 1495 1495 1496 1496 1496 1497 1497 1498 1498 1499 1499 1499 1500 1500 1500 1501 1501 1501 1501 1502 1502 1501 1501 1501 1501 1501 1501 1501 1502 1502 1502 1502
1486 1486 1487 1488 1489 1490 1491 1491 1491 1492 1492 1492 1492 1492 1493 1493 1493 1493 1494 1494 1495 1495 1496 1496 1496 1496 1497 1497 1497 1497 1497 1497 1497 1497 1497 1497 1496 1497 1497 1497 1498 1498 1498
1483 1484 1485 1485 1487 1487 1488 1488 1489 1489 1489 1489 1489 1489 1489 1489 1489 1489 1490 1490 1491 1491 1491 1492 1492 1492 1493 1493 1493 1493 1493 1493 1493 1493 1492 1492 1492 1492 1492 1492 1492 1493 1493
1480 1481 1482 1482 1483 1484 1485 1485 1485 1486 1486 1486 1486 1486 1486 1486 1486 1486 1486 1486 1486 1487 1487 1488 1488 1488 1488 1488 1489 1489 1489 1489 1489 1488 1488 1488 1488 1488 1488 1487 1488 1488 1488
1477 1478 1479 1479 1480 1481 1481 1482 1482 1482 1483 1483 1483 1482 1482 1482 1482 1482 1482 1482 1482 1483 1483 1483 1483 1484 1484 1484 1484 1484 1484 1484 1484 1484 1483 1483 1483 1483 1483 1483 1483 1483 1483
1474 1475 1476 1476 1477 1478 1478 1479 1479 1479 1479 1479 1479 1479 1479 1479 1478 1478 1478 1478 1478 1478 1479 1479 1479 1479 1479 1479 1480 1479 1479 1479 1479 1479 1479 1479 1479 1479 1479 1479 1479 1479 1479
1471 1472 1473 1473 1474 1475 1475 1476 1476 1476 1476 1476 1476 1476 1476 1475 1475 1474 1474 1474 1474 1474 1474 1474 1475 1475 1475 1475 1474 1474 1474 1474 1474 1474 1474 1474 1474 1474 1474 1474 1474 1474 1475